AirNav   ATP
 
 305 users online  

8WA3 Valley Medical Center Heliport
Renton, Washington, USA

GOING TO RENTON?


FAA INFORMATION EFFECTIVE 14 SEPTEMBER 2017

Location

FAA Identifier: 8WA3
Lat/Long: 47-26-30.4700N / 122-12-52.3900W
47-26.507833N / 122-12.873167W
47.4417972 / -122.2145528
(estimated)
Elevation: 100 ft. / 30 m (estimated)
Variation: 20E (1985)
From city: 3 miles S of RENTON, WA
Time zone: UTC -7 (UTC -8 during Standard Time)
Zip code: 98055

Heliport Operations

Heliport use: Private use, MEDICAL USE.
Activation date: 03/1976
Control tower: no
ARTCC: SEATTLE CENTER
FSS: SEATTLE FLIGHT SERVICE STATION
Attendance: UNATNDD
Wind indicator: lighted
Segmented circle: no
Lights: SS-SR

Heliport Communications

WX ASOS at RNT (3 nm N): PHONE 425-255-6080
WX ASOS at SEA (4 nm W): PHONE 206-431-2834
WX ASOS at BFI (6 nm NW): PHONE 206-763-6904
WX ASOS at TIW (18 nm SW): PHONE 253-858-6507

Nearby radio navigation aids

VOR radial/distance  VOR name  Freq  Var
SEAr065/3.9SEATTLE VORTAC116.8019E
TCMr016/20.6MCCHORD VORTAC109.6015E
PAEr155/28.8PAINE VOR/DME110.6020E
OLMr026/39.8OLYMPIA VORTAC113.4019E

 
NDB name  Hdg/Dist  Freq  Var  ID
RENTON163/3.235317ERNT .-. -. -
PARKK130/6.628115EHPK .... .--. -.-
NOLLA133/13.536215EBF -... ..-.
GRAYE026/23.621616EGRF --. .-. ..-.
LACOMAS012/29.532816ELAC .-.. .- -.-.
MASON COUNTY053/37.334819EMNC -- -. -.-.

Heliport Services

Runway Information

Helipad H1

Dimensions: 118 x 118 ft. / 36 x 36 m
Surface: asphalt
Runway edge lights: PERIMETER LGTS.
Latitude: 47-26.507833N
Longitude: 122-12.873167W
Elevation: 100.0 ft.
Traffic pattern: leftleft

Heliport Ownership and Management from official FAA records

Ownership: Publicly-owned
Owner: PUB.HOSPITAL DISTRICT-1
400 SOUTH 43RD ST
RENTON, WA 98055
Phone 425-228-3440
Manager: RICHARD D. ROODMAN, ADMIN.
400 SOUTH 43RD ST.
RENTON, WA 98055
Phone 425-228-3440
GARRY MAITREJEAN - 425-228-3440

Instrument Procedures

There are no published instrument procedures at 8WA3.

Some nearby airports with instrument procedures:

KRNT - Renton Municipal Airport (3 nm N)
KSEA - Seattle-Tacoma International Airport (4 nm W)
KBFI - Boeing Field/King County International Airport (6 nm NW)
S50 - Auburn Municipal Airport (7 nm S)
KTIW - Tacoma Narrows Airport (18 nm SW)
 
Loc | Ops | Rwys | IFR | FBO | Links
Com | Nav | Svcs | Stats | Notes


 
Area around 8WA3 (Valley Medical Center Heliport)
 
Road maps at: MapQuest Bing Google
 
Aerial photo
No photo
 
Sectional chart

 
Airport distance calculator
Flying to Valley Medical Center Heliport? Find the distance to fly.

From to 8WA3

Sunrise and sunset
Times for 26-Sep-2017
 Local
(UTC-7)
 Zulu
(UTC)
Morning civil twilight06:3213:32
Sunrise07:0214:02
Sunset18:5801:58
Evening civil twilight19:2902:29

Current date and time
Zulu (UTC)  26-Sep-2017 07:26:56
Local (UTC-7)  26-Sep-2017 00:26:56
 
METAR
KRNT 
3nm N 
260653Z AUTO 00000KT 10SM SCT045 16/14 A3013 RMK AO2 SLP206 T01610139
KSEA 
4nm W 
260653Z 00000KT 10SM FEW029 OVC035 17/12 A3013 RMK AO2 SLP210 T01670122
KBFI 
8nm NW 
260653Z 28003KT 10SM BKN040 17/12 A3012 RMK AO2 SLP200 T01720122
KTIW 
18nm SW 
260653Z AUTO 00000KT 10SM OVC034 16/13 A3014 RMK AO2 SLP204 T01560128
TAF
KSEA 
4nm W 
260520Z 2606/2712 VRB03KT P6SM OVC035 FM261200 VRB03KT P6SM SCT012 BKN035 TEMPO 2614/2618 BKN012 BKN035 FM262000 34007KT P6SM FEW040 SCT200 FM270000 36009KT P6SM SCT200
KBFI 
8nm NW 
260520Z 2606/2706 VRB02KT P6SM OVC035 FM261200 00000KT P6SM SCT015 BKN040 TEMPO 2614/2618 BKN015 BKN040 FM262000 31006KT P6SM FEW045 SCT200
NOTAMs
Click for the latest NOTAMs
NOTAMs are issued by the DoD/FAA and will open in a separate window not controlled by AirNav.

 

 
 

Would you like to see your business listed on this page?

 If your business provides an interesting product or service to pilots, flight crews, aircraft, or users of the Valley Medical Center Heliport, you should consider listing it here.  To start the listing process, click on the button below
 
Add a business
 

Other Pages about Valley Medical Center Heliport

Update a link
 
Copyright © AirNav, LLC. All rights reserved. Privacy Policy  Contact